YC0TBU-4 Weather Reports


Display with metric or nautical units.
time (UTC)temp
F
wind
direction
speed
MPH
gust
MPH
rain 1hr
in
rain 24hr
in
rain mn
in
humidity
%
barometer
mb
20260508225904 89 0.0 0.0 0.00 0.00 0.00 36 1009.7
20260508224329 89 0.0 0.0 0.00 0.00 0.00 37 1009.6
20260508222754 90 0.0 0.0 0.00 0.00 0.00 36 1009.7
20260508221219 90 0.0 0.0 0.00 0.00 0.00 36 1009.3
20260508215644 90 0.0 0.0 0.00 0.00 0.00 36 1009.1
20260508214109 90 0.0 0.0 0.00 0.00 0.00 36 1009.2
20260508212534 89 0.0 0.0 0.00 0.00 0.00 36 1009.5
20260508210959 89 0.0 0.0 0.00 0.00 0.00 36 1009.6
20260508205423 89 0.0 0.0 0.00 0.00 0.00 36 1009.6
20260508203848 90 0.0 0.0 0.00 0.00 0.00 36 1010.1
20260508202313 90 0.0 0.0 0.00 0.00 0.00 36 1009.9
20260508200738 90 0.0 0.0 0.00 0.00 0.00 36 1010.1
20260508195203 90 0.0 0.0 0.00 0.00 0.00 36 1010.4
20260508193628 89 0.0 0.0 0.00 0.00 0.00 36 1010.6
20260508192053 90 0.0 0.0 0.00 0.00 0.00 36 1009.9
20260508190518 90 0.0 0.0 0.00 0.00 0.00 35 1010.5
20260508184943 90 0.0 0.0 0.00 0.00 0.00 35 1010.7
20260508183408 90 0.0 0.0 0.00 0.00 0.00 35 1010.6
20260508181833 90 0.0 0.0 0.00 0.00 0.00 36 1010.3
20260508180258 92 0.0 0.0 0.00 0.00 0.00 35 1010.5
20260508174723 92 0.0 0.0 0.00 0.00 0.00 35 1010.5
20260508173148 92 0.0 0.0 0.00 0.00 0.00 34 1010.7
20260508171613 92 0.0 0.0 0.00 0.00 0.00 34 1010.6
20260508170038 92 0.0 0.0 0.00 0.00 0.00 34 1010.7
20260508164503 92 0.0 0.0 0.00 0.00 0.00 35 1011.0
20260508162928 91 0.0 0.0 0.00 0.00 0.00 35 1010.9
20260508161353 90 0.0 0.0 0.00 0.00 0.00 36 1010.9
20260508155818 92 0.0 0.0 0.00 0.00 0.00 35 1011.1
20260508154227 91 0.0 0.0 0.00 0.00 0.00 35 1010.8
20260508152657 92 0.0 0.0 0.00 0.00 0.00 34 1010.6
20260508151101 92 0.0 0.0 0.00 0.00 0.00 34 1010.4
20260508145526 92 0.0 0.0 0.00 0.00 0.00 34 1010.6
20260508143951 92 0.0 0.0 0.00 0.00 0.00 34 1011.4
20260508142416 93 0.0 0.0 0.00 0.00 0.00 34 1011.1
20260508140842 93 0.0 0.0 0.00 0.00 0.00 34 1010.9
20260508135306 92 0.0 0.0 0.00 0.00 0.00 35 1010.3
20260508133731 91 0.0 0.0 0.00 0.00 0.00 36 1010.5
20260508132201 91 0.0 0.0 0.00 0.00 0.00 36 1010.6
20260508130605 91 0.0 0.0 0.00 0.00 0.00 35 1009.8
20260508125029 91 0.0 0.0 0.00 0.00 0.00 35 1009.6
20260508123454 91 0.0 0.0 0.00 0.00 0.00 34 1009.7
20260508121919 91 0.0 0.0 0.00 0.00 0.00 35 1009.2
20260508120344 94 0.0 0.0 0.00 0.00 0.00 32 1008.8
20260508114753 92 0.0 0.0 0.00 0.00 0.00 33 1008.2
20260508113218 89 0.0 0.0 0.00 0.00 0.00 36 1008.0
20260508111643 89 0.0 0.0 0.00 0.00 0.00 37 1007.7
20260508110108 88 0.0 0.0 0.00 0.00 0.00 38 1007.7
20260508104533 89 0.0 0.0 0.00 0.00 0.00 36 1007.7
20260508102942 89 0.0 0.0 0.00 0.00 0.00 37 1007.4
20260508101407 88 0.0 0.0 0.00 0.00 0.00 37 1007.3
20260508095832 89 0.0 0.0 0.00 0.00 0.00 37 1007.2
20260508094257 89 0.0 0.0 0.00 0.00 0.00 36 1007.0
20260508092722 89 0.0 0.0 0.00 0.00 0.00 35 1006.9
20260508091147 88 0.0 0.0 0.00 0.00 0.00 37 1007.1
20260508085612 87 0.0 0.0 0.00 0.00 0.00 37 1006.2
20260508084037 88 0.0 0.0 0.00 0.00 0.00 35 1005.7
20260508082502 87 0.0 0.0 0.00 0.00 0.00 36 1005.9
20260508080927 87 0.0 0.0 0.00 0.00 0.00 37 1006.0
20260508075336 88 0.0 0.0 0.00 0.00 0.00 36 1006.3
20260508073801 87 0.0 0.0 0.00 0.00 0.00 37 1006.5
20260508072225 88 0.0 0.0 0.00 0.00 0.00 37 1006.3
20260508070634 88 0.0 0.0 0.00 0.00 0.00 36 1006.9
20260508065059 90 0.0 0.0 0.00 0.00 0.00 34 1008.1
20260508063524 92 0.0 0.0 0.00 0.00 0.00 33 1007.5
20260508061949 91 0.0 0.0 0.00 0.00 0.00 34 1008.3
20260508060414 91 0.0 0.0 0.00 0.00 0.00 34 1008.3
20260508054839 90 0.0 0.0 0.00 0.00 0.00 34 1007.9
20260508053304 91 0.0 0.0 0.00 0.00 0.00 31 1007.8
20260508051729 91 0.0 0.0 0.00 0.00 0.00 31 1008.1
20260508050106 92 0.0 0.0 0.00 0.00 0.00 31 1008.4
20260508044531 91 0.0 0.0 0.00 0.00 0.00 32 1008.3
20260508042956 92 0.0 0.0 0.00 0.00 0.00 31 1008.9
20260508041421 90 0.0 0.0 0.00 0.00 0.00 33 1009.8
20260508035846 89 0.0 0.0 0.00 0.00 0.00 35 1009.7
20260508034311 90 0.0 0.0 0.00 0.00 0.00 35 1009.5
20260508032736 91 0.0 0.0 0.00 0.00 0.00 35 1010.0
20260508031201 91 0.0 0.0 0.00 0.00 0.00 35 1010.4
20260508025626 91 0.0 0.0 0.00 0.00 0.00 35 1010.4
20260508024035 90 0.0 0.0 0.00 0.00 0.00 35 1010.4
20260508022500 91 0.0 0.0 0.00 0.00 0.00 35 1010.5
20260508020924 90 0.0 0.0 0.00 0.00 0.00 35 1010.3
20260508015349 90 0.0 0.0 0.00 0.00 0.00 35 1010.4
20260508013814 90 0.0 0.0 0.00 0.00 0.00 36 1010.3
20260508012239 90 0.0 0.0 0.00 0.00 0.00 35 1010.3
20260508010704 90 0.0 0.0 0.00 0.00 0.00 35 1009.5
20260508005129 90 0.0 0.0 0.00 0.00 0.00 35 1009.6
20260508003554 90 0.0 0.0 0.00 0.00 0.00 36 1009.7
20260508002020 90 0.0 0.0 0.00 0.00 0.00 35 1009.6
20260508000444 90 0.0 0.0 0.00 0.00 0.00 36 1009.0
20260507234909 90 0.0 0.0 0.00 0.00 0.00 36 1009.0
20260507233334 90 0.0 0.0 0.00 0.00 0.00 36 1009.0
20260507231759 90 0.0 0.0 0.00 0.00 0.00 36 1009.1
20260507230224 90 0.0 0.0 0.00 0.00 0.00 36 1009.3